DELTA 1 DEB, 10717

Orbit data source: Space-Track

DELTA 1 DEB, 10717 is space debris in SSO originally from a launch on Thu, 29 Jul 1976 UTC launched from the Air Force Western Test Range (AFWTR). Debris objects in space refer to the collection of defunct objects orbiting the Earth. Examples of debris include non-operational satellites, rocket bodies, and fragments generated from explosions, collisions, or faulty payload assembly.

Loading next visibility...
Identifier
10717, 1976-077AN
Orbit
SSO
Last TLE update
2 days ago
Origin
Manufacturer
Unknown
Mission
Spacecraft
Bus & Motor
Unknown
Mass
Unknown
Launch date (UTC)
1976-07-29 (49 years ago)
Launch vehicle
Unknown
Launch site
Air Force Western Test Range (AFWTR)
Object type
Payload
Rocket body
Debris
Shape & HBR
Unknown
Radar Cross Section
Small (<0.1 m²)

Expand to show TLE details & history

TLE from 2 days ago
0 DELTA 1 DEB
1 10717U 76077AN  25127.49235954 -.00000023  00000-0  21403-3 0  9990
2 10717 102.6015 106.2399 0099340 291.2901 188.0020 12.23309361178120
Epoch: 2025-05-07T11:48Z
Definitive object data (Epoch: 2025-05-07T11:48:59.864Z)
Latitude
58.56786°
Longitude
-95.2383°
Altitude
1,666.116 km
Speed
7.011 km/s
True Right ascension
20h 30m 21s
True Declination
58° 25' 55"
Sunlit
Object was in daylight at TLE epoch
Visualization TLE readout
Latitude
71.49251°
Longitude
23.6337°
Altitude
1,657.285 km
Speed
7.021 km/s
Apparent Right ascension
04h 43m 18s
Apparent Declination
25° 20' 57"
Sunlit
Object is in daylight
Visualization observer readout
Local Sidereal Time
16:52:24
Azimuth
2.265° NNE
Elevation
-24.7°
Doppler factor
1
Orbital elements
Apogee altitude
1,654.807 km
Perigee altitude
1,496.778 km
Semi-major axis
7,953.929 km
Eccentricity
0.009934
Inclination
102.6015°
RAAN
106.2399°
Arg. of periapsis
291.2901°
True anomaly
187.84546°
Mean anomaly
188.002°
Eccentric anomaly
187.92354°
Mean motion
3.05964 °/min
BSTAR
0.00021403
Orbital period
117.66 mins
Loading maneuver chart data...
Loading SW <> Apogee altitude chart data...
Loading historical data...
Loading historical data...
Loading historical data...
Loading historical data...
Loading historical data...
Loading historical data...
Loading historical data...

DELTA 1 DEB Visibility forecast

Observer location: undefined°, undefined°

Span
Click to sort rows by Start time (UTC) header in descending order
Start Az.
Max El. time (UTC)
Max El. Az.
Max El.
End time (UTC)
End Az.
17 mins2025-05-09 10:54:12.210Z28.185° NE2025-05-09 11:02:12.210Z93.667° ESE38.803°2025-05-09 11:11:12.210Z178.188° S
14 mins2025-05-09 12:51:12.210Z359.38° N2025-05-09 12:57:12.210Z307.713° NW32.435°2025-05-09 13:05:12.210Z239.672° WSW
11 mins2025-05-09 20:17:12.210Z85.984° E2025-05-09 20:22:12.210Z46.704° ENE20.736°2025-05-09 20:28:12.210Z4.553° NNE
16 mins2025-05-09 22:08:12.210Z156.617° SSE2025-05-09 22:16:12.210Z28.674° NE44.885°2025-05-09 22:24:12.210Z342.587° N
10 mins2025-05-10 00:08:12.210Z235.603° WSW2025-05-10 00:12:12.210Z266.975° W19.022°2025-05-10 00:18:12.210Z310.269° NW
|